Current Version              Previous Version:    01  02  03  04  05  06  07  08  09  10  11  12  13  14  15  16  17  18  19  20  21  22  23  24  25  26  27  28  29  30  
   31  32  33  34  35  36  37  38  39  40  41  42  43  44  45  46  47  48  49  50  51  52  53  54  55  56  57  58  59  60  

[Printable]
997
ASUS44 KLUB 020001
RWRTX
WEST TEXAS WEATHER ROUNDUP
NATIONAL WEATHER SERVICE LUBBOCK TX
700 PM CDT MON SEP 01 2014

NOTE: "FAIR" INDICATES FEW OR NO CLOUDS BELOW 12,000 FEET WITH NO
SIGNIFICANT WEATHER AND/OR OBSTRUCTIONS TO VISIBILITY.

TXZ004-006>008-010-012-014-016-OKZ002-020100-
TEXAS PANHANDLE/OKLAHOMA PANHANDLE

CITY           SKY/WX    TMP DP  RH WIND       PRES   REMARKS
AMARILLO       SUNNY     92  55  28 E5        29.90S
BORGER         SUNNY     91  60  35 E8        29.88R
CANADIAN       SUNNY     88  67  50 N5        29.83S
DALHART        SUNNY     88  55  32 E10       29.94F
DUMAS          SUNNY     89  59  36 SE3       29.92S
GUYMON         SUNNY     86  62  44 E10       29.89R
HEREFORD       SUNNY     96  49  20 MISG      29.90S
PAMPA          SUNNY     87  60  39 E8        29.90S
PERRYTON       SUNNY     84  64  51 NE7       29.90S
$$

TXZ026-029-035-045-048-020100-
SOUTHERN PANHANDLE/SOUTH PLAINS/ROLLING PLAINS

CITY           SKY/WX    TMP DP  RH WIND       PRES   REMARKS
CHILDRESS      SUNNY     98  65  33 S12       29.77F HX 101
SEMINOLE       SUNNY    101  39  12 SW8       29.86S HX  95
LUBBOCK        MOSUNNY  100  44  14 S16       29.84S HX  96
PLAINVIEW      SUNNY     97  52  22 N5        29.85S
SNYDER         MOSUNNY  100  60  26 S15       29.82F HX 100
$$

TXZ052-054-060>062-072-078-127-140-154-169-020100-
PERMIAN BASIN/CONCHO VALLEY/BIG COUNTRY/EDWARDS PLATEAU

CITY           SKY/WX    TMP DP  RH WIND       PRES   REMARKS
ABILENE        SUNNY     98  61  29 SE23      29.82S HX  98
BIG SPRING     SUNNY    102  54  20 S9        29.84F HX 100
BRADY          SUNNY     93  61  33 SE13      29.87R
BROWNWOOD      MOSUNNY   95  61  31 S13       29.84R HX  95
JUNCTION       SUNNY     94  61  33 SE15G22   29.87R
MIDLAND        SUNNY    101  53  20 S13       29.83S HX  99
ODESSA         MOSUNNY  101  48  16 S16       29.84F HX  97
SAN ANGELO     SUNNY     98  60  28 S12G17    29.83S HX  98
SONORA         SUNNY     93  61  33 S13       29.91S
SWEETWATER     SUNNY     97  58  26 SE16      29.87R HX  96
WINK           SUNNY    103  42  12 VRB3      29.80F HX  98
$$

TXZ055-058-074-075-080-082-020100-
FAR WEST/SOUTHWEST MOUNTAINS/TRANS PECOS

CITY           SKY/WX    TMP DP  RH WIND       PRES   REMARKS
ALPINE         PTSUNNY   91  49  23 W10       30.04R
DRYDEN           N/A    101  59  24 E15G26    29.81F HX 101
EL PASO        MOSUNNY   98  34  10 W16       29.92S
FORT STOCKTON  MOSUNNY   97  57  26 SE17G28   29.85S HX  96
GUADALUPE PASS SUNNY     92  40  16 W18G30    30.07R
MARFA          PTSUNNY   91  46  21 E20G25    30.04R
PRESIDIO       FAIR     101  49  17 NW5       29.82F HX  97
$$

TXZ014-016-019-021>030-083-020100
TEXAS TECH WEST TEXAS MESONET/TEXAS PANHANDLE/NORTHERN SOUTH PLAINS

CITY           SKY/WX    TMP DP  RH WIND       PRES   REMARKS
ABERNATHY 5ENE   N/A    100  40  12 S7        29.85S HX  95
AMARILLO 9NNE    N/A     92  60  34 N3        29.87S
AMARILLO 7SSE    N/A     93  56  28 E5        29.90F
AMHERST 1NE      N/A     98  38  12 SW8       29.88S
BOOTLEG 11WNW    N/A     95  43  16 SW10      29.95S
CANADIAN 6E      N/A     88  66  48 N6        29.83S
CAPROCK CYN SP   N/A    101  43  13 S8        29.80S HX  97
CHILDRESS 2NNE   N/A     98  64  32 SE9       29.77S HX 101
CLARENDON 2WSW   N/A     96  58  28 NE5       29.84S HX  95
CLAUDE 12SW      N/A     91  62  38 N3        29.88F
DIMMITT 2NE      N/A     96  45  17 SE7       29.90S
FLOYDADA 2NNE    N/A     96  49  19 S9        29.85S
FRIONA 2NE       N/A     95  46  19 E7        29.91S
GOODLETT 3W      N/A    102  60  24 S12       29.74S HX 102
HART 3N          N/A     96  47  18 CALM      29.89F
HEREFORD 2NW     N/A     94  48  20 E6        29.90S
MCLEAN 1E        N/A     96  59  29 E5        29.83S HX  95
MEMPHIS 1NE      N/A     98  63  31 SE8       29.77S HX  99
MULESHOE 2SSW    N/A    100  36  11 W2        29.89S
OLTON 6S         N/A     95  51  21 N5        29.87S
PALO DURO SP     N/A     95  57  27 E2        29.89F
PAMPA 2E         N/A     88  64  44 N5        29.88F
PLAINVIEW 1S     N/A     99  51  20 NW2       29.85S HX  96
SILVERTON 7ESE   N/A     99  50  19 S9        29.85S HX  95
TULIA 2ENE       N/A     98  42  15 S9        29.87S
TURKEY 2WSW      N/A    101  48  16 S9        29.78S HX  98
UMBARGER 3NNE    N/A     94  53  24 CALM      29.91S
$$

TXZ033>036-039>041-045>048-020100
TEXAS TECH WEST TEXAS MESONET/SOUTH PLAINS

CITY           SKY/WX    TMP DP  RH WIND       PRES   REMARKS
AIKEN 3WSW       N/A     95  65  36 NE3       29.87S HX  97
ANDREWS 2NE      N/A    103  36  10 S2        29.85S HX  97
ANTON 6SSW       N/A    100  42  13 CALM      29.85S HX  96
BROWNFIELD 2S    N/A    100  37  11 SW8       29.85S
DENVR CTY 7WNW   N/A     98  38  12 S7        29.88S
GAIL 2ESE        N/A    101  49  17 S13       29.80S HX  98
LAMESA 2SE       N/A    100  53  20 SE13      29.84S HX  97
LEVELLAND 4S     N/A    100  43  14 S7        29.86S HX  95
LUBBOCK 3WNW     N/A    100  42  13 S7        29.84S HX  96
MORTON 1ENE      N/A     99  41  13 W2        29.88S HX  95
ODONNELL 1N      N/A     99  49  18 S12       29.84S HX  96
PLAINS 3N        N/A     99  39  12 S8        29.89S
RALLS 1SE        N/A     99  53  21 S9        29.85S HX  96
REESE CENTER     N/A    100  38  11 SW8       29.85S HX  95
SEAGRAVES 1SW    N/A    101  38  11 SW9       29.86S HX  96
SEMINOLE 2NNE    N/A    101  37  10 SW7       29.85S HX  95
SLATON 2NE       N/A     97  49  19 S9        29.84S
SNYDER 3E        N/A     99  58  25 S14G23    29.81F HX  99
SUNDOWN 8SW      N/A    100  38  12 S10       29.87S
TAHOKA 3NNE      N/A    101  49  17 S13       29.83S HX  97
WOLFFORTH 6SSW   N/A    100  40  12 S10       29.85S HX  95
$$

TXZ031-032-036>038-042>044-020100-
TEXAS TECH WEST TEXAS MESONET/ROLLING PLAINS

CITY           SKY/WX    TMP DP  RH WIND       PRES   REMARKS
ASPERMONT 3NE    N/A    100  62  28 SE10      29.77S HX 102
FLUVANNA 3WNW    N/A    100  53  21 S10       29.82F HX  97
GRAHAM 5SSW      N/A     99  47  17 S14       29.82F HX  95
GUTHRIE 10WSW    N/A    100  63  29 SE13      29.77S HX 101
HASKELL 1NW      N/A     99  55  22 S10       29.77S HX  97
JAYTON 1SSE      N/A    101  58  24 S13       29.77S HX 100
KNOX CITY 3NW    N/A    100  57  23 S17       29.76S HX  99
LK A HENRY 1NW   N/A    101  56  21 S8        29.78F HX 100
NORTHFIELD 1S    N/A     98  65  34 SE15      29.76S HX 101
ODELL 4ENE       N/A     99  64  30 SE15      29.76S HX 101
PADUCAH 10SW     N/A     97  64  32 S9        29.77S HX  99
POST 1NE         N/A    102  43  13 S10       29.80F HX  98
RRING SPRGS 3N   N/A     97  61  29 SE12      29.81S HX  98
SEYMOUR 3NW      N/A     98  58  25 SE17      29.76R HX  97
SPUR 1W          N/A     99  54  21 S10       29.78S HX  97
WEINERT 2NNE     N/A    100  61  27 S14       29.77S HX 100
WHITE RVR 6NE    N/A    100  50  18 S16       29.81S HX  97
$$

TXZ052-054-060>062-072-078-127-140-154-169-020100-
TEXAS TECH WEST TEXAS MESONET/PERMIAN BASIN/
CONCHO VALLEY/BIG COUNTRY/EDWARDS PLATEAU

CITY           SKY/WX    TMP DP  RH WIND       PRES   REMARKS
JUNCTION 1SSW    N/A     94  63  35 S9        29.87S HX  95
MERTZON 3NNE     N/A     97  64  33 S13       29.86R HX  99
SAN ANGELO 7NW   N/A     97  60  28 S14       29.83S HX  97
STRLNG CT 4WSW   N/A     99  63  31 SE12      29.84S HX 100
ST LAWRNCE 5SW   N/A     98  55  23 S10       29.85S HX  96
SWEETWATR 11SW   N/A     97  62  31 S17       29.86R HX  98
WALL 1E          N/A     95  60  30 S9        29.84S HX  95
$$

TXZ055-058-074-075-080-082-020100-
TEXAS TECH WEST TEXAS MESONET/FAR WEST/SOUTHWEST MOUNTAINS/TRANS PECOS

CITY           SKY/WX    TMP DP  RH WIND       PRES   REMARKS
PRSMN GAP BBNP   N/A    102  51  17 SE5       29.83S HX  99
GUADLPE MTN NP   N/A     88  39  17 S10       30.08S
$$